Location: Ostrava
(49.8330°N, 18.2830°E)
Time: 20:26:36
(UTC+02:00)

Daily predictions for brighter satellites

Satellite Brightness Start Highest point End
(mag) Time Altitude Azimuth Time Altitude Azimuth Time Altitude Azimuth
Cosmos 614 Rocket 4.0 20:23:36 10° NNW 20:28:44 89° ENE 20:33:53 10° SSE
EXPRESS MD2 4.1 20:27:28 10° SSW 20:29:49 24° SE 20:33:29 10° E
Cosmos 1954 Rocket 4.5 20:25:31 10° NNW 20:30:48 68° WSW 20:36:05 10° S
Cosmos 2151 Rocket 3.8 20:26:38 10° SSE 20:30:52 50° E 20:35:08 10° NNE
Cosmos 839 Rocket 4.1 20:25:46 10° SSW 20:31:44 53° ESE 20:37:55 10° NE
CZ-4B DEB 4.5 20:38:13 10° SSE 20:41:44 81° ENE 20:45:17 10° NNW
Cosmos 2360 4.3 20:37:30 10° SSW 20:43:13 89° ESE 20:48:57 10° NNE
Cosmos 1741 Rocket 4.0 20:40:31 10° NNW 20:45:47 81° ENE 20:51:03 10° SSE
Meteor 1-11 Rocket 3.9 20:41:19 10° S 20:47:02 59° E 20:52:39 10° NNE
Cosmos 1536 Rocket 3.6 20:44:23 10° N 20:48:44 89° W 20:53:05 10° S
Tiangong 1 2.7 20:47:44 10° SW 20:49:44 18° S 20:51:26 11° SE
H-2A R/B 3.2 20:47:19 10° ESE 20:51:23 25° ENE 20:55:26 10° N
ERS-1 Rocket 3.4 20:46:46 10° SE 20:51:33 47° ENE 20:56:21 10° N
Okean 2 4.4 20:48:51 10° N 20:52:31 30° ENE 20:55:43 12° SE
Envisat 3.7 20:51:10 10° S 20:56:09 58° W 21:01:12 10° NNW
ATLAS 2AS CENTAUR R/B 3.5 20:52:36 10° S 20:59:32 38° ESE 21:06:48 10° NE
Helios 1A 3.0 20:56:03 10° SSE 21:00:18 87° ENE 21:04:36 10° NNW
SOZ 4.2 20:57:45 10° WNW 21:00:35 75° SSW 21:02:00 18° ESE
Cosmos 2278 Rocket 4.2 20:57:13 10° N 21:00:59 18° NE 21:04:43 10° ENE
Cosmos 2263 Rocket 2.3 20:57:34 10° NNW 21:03:18 85° WSW 21:09:00 10° SSE
ARGOS 3.6 20:59:41 12° SE 21:04:26 46° ENE 21:09:33 10° N
NOSS 3-1 (A) 3.9 21:00:11 10° SW 21:06:07 71° NW 21:12:56 10° NE
ERBS 2.3 21:03:36 10° SW 21:07:05 85° SE 21:10:34 10° ENE
Meteor 1-23 Rocket 4.2 21:01:52 10° N 21:07:29 77° ENE 21:13:03 10° SSE
Cosmos 2322 Rocket 2.2 21:01:59 10° SSW 21:07:36 63° ESE 21:13:14 10° NE
Meteor 1-29 3.4 21:05:41 10° NNE 21:08:58 39° E 21:12:09 10° S
NOSS 2-3 (E) 4.3 21:05:19 10° SSW 21:09:50 43° ESE 21:15:08 10° NE
Cosmos 1844 Rocket 3.7 21:06:00 10° NNW 21:11:10 34° NE 21:15:22 14° ESE
CZ-4B DEB 2.4 21:08:59 13° SSE 21:11:26 83° E 21:14:20 10° NNW
CENTAUR R/B 4.3 21:05:59 10° NW 21:12:22 32° NNE 21:19:25 10° ENE
SAR-Lupe-4 3.6 21:10:16 14° SSE 21:13:18 68° ENE 21:16:54 10° N
SL-8 R/B 3.7 21:09:03 10° W 21:13:50 71° S 21:17:36 16° ESE
SL-08 RB Rocket 4.3 21:12:54 16° SE 21:16:09 42° ENE 21:20:27 10° N
Terra 3.5 21:14:38 13° E 21:17:19 20° ENE 21:20:46 10° NNE
SL-16 R/B 2.1 21:12:27 10° SSW 21:18:05 74° ESE 21:23:47 10° NNE
Cosmos 1110 Rocket 4.4 21:19:38 10° S 21:24:24 39° ESE 21:29:11 10° NE
Cosmos 1607 4.2 21:18:19 10° NW 21:24:45 69° SW 21:30:08 15° SSE
Cosmos 1975 4.2 21:24:22 20° ESE 21:25:21 22° E 21:28:26 10° NE
Cosmos 2315 Rocket 4.0 21:20:14 10° N 21:26:31 78° E 21:32:23 12° SSE
Cosmos 2322 4.4 21:22:15 10° SSE 21:27:13 33° ESE 21:32:13 10° NE
Cosmos 2219 Rocket 4.1 21:29:29 12° E 21:29:29 12° E 21:31:04 10° ENE
SAR-Lupe-1 4.0 21:27:47 19° SSE 21:30:18 89° E 21:33:55 10° NNW
Cosmos 2266 Rocket 3.9 21:26:13 10° S 21:32:16 87° W 21:38:21 10° N
Abrixas rocket 2.1 21:31:55 10° W 21:35:12 70° S 21:36:39 30° ESE
COSMOS 2428 3.9 21:34:33 21° ESE 21:35:51 22° ESE 21:40:09 10° NE
Molniya-1 4.2 21:33:53 10° NNW 21:36:16 41° NE 21:37:26 27° E
Cosmos 1455 Rocket 4.3 21:35:45 22° ESE 21:36:47 24° E 21:40:21 10° NE
MetOp-B 4.2 21:34:26 15° SSE 21:38:59 85° WSW 21:44:23 10° NNW
Nadezhda 2 Rocket 4.5 21:33:00 10° S 21:39:04 67° E 21:45:17 10° NNE
Cosmos 1331 Rocket 4.2 21:34:45 10° S 21:39:41 46° ESE 21:44:41 10° NNE
Cosmos 405 4.0 21:39:42 28° ESE 21:40:07 28° E 21:43:15 10° NNE
Cosmos 1238 Rocket 4.2 21:33:38 10° N 21:40:21 62° ENE 21:44:54 21° SSE
ATLAS CENTAUR R/B 4.0 21:40:17 10° N 21:40:44 10° NNE 21:41:11 10° NNE
USA 215 4.1 21:34:58 10° ENE 21:41:11 48° N 21:47:24 10° WNW
Cosmos 2360 Rocket 2.4 21:36:25 10° S 21:41:50 49° ESE 21:47:15 10° NE
Cosmos 1844 4.4 21:36:50 10° NNW 21:42:13 43° NE 21:45:32 22° ESE
Cosmos 1980 Rocket 4.0 21:38:14 10° WSW 21:43:19 34° NW 21:48:24 10° NNE
NOSS 2-3 (C) 3.9 21:38:34 10° SSW 21:43:22 73° SE 21:49:08 10° NE
Cosmos 1515 3.6 21:42:02 10° N 21:45:52 90° W 21:47:55 26° S
Meteor 1-5 Rocket 4.1 21:40:34 10° SSW 21:45:54 81° WNW 21:51:14 10° N
Cosmos 1536 3.8 21:42:12 10° SSW 21:46:09 49° WNW 21:50:07 10° N
Cosmos 2333 Rocket 4.0 21:50:29 14° E 21:50:29 14° E 21:52:38 10° ENE
SeaSat 1 3.5 21:46:33 10° NNE 21:51:18 48° NW 21:56:02 10° SW
Helios 1B rocket 3.1 21:47:18 10° N 21:51:21 56° WNW 21:55:22 10° SSW
NOSS 3-2 (A) 4.1 21:44:12 10° NW 21:51:27 66° NE 21:56:48 23° ESE
USA 238 DEB 3.8 21:45:06 10° NW 21:52:13 85° SW 21:56:46 25° SE
USA 238 3.8 21:45:12 10° NW 21:52:20 85° SW 21:56:52 25° SE
SPOT 1/Viking Rocket 3.6 21:49:20 25° SSE 21:52:26 71° ENE 21:57:39 10° N
Okean 1 Rocket 3.5 21:48:31 10° SSW 21:52:50 62° WNW 21:57:12 10° N
Okean 1-7 Rocket 4.0 21:48:57 10° NNW 21:53:22 62° W 21:56:44 17° S
IGS 5A 4.4 21:52:39 27° ESE 21:53:55 33° ENE 21:57:40 10° N
Cosmos 1745 Rocket 4.4 21:57:22 27° SE 22:00:09 42° E 22:05:53 10° NNE
YAOGAN 11 4.0 21:58:35 29° SSE 22:00:47 87° WSW 22:05:08 10° NNW
SPOT 5 2.9 21:58:22 24° S 22:01:20 79° WSW 22:06:01 10° NNW
Cosmos 1025 Rocket 3.9 21:58:04 10° NNW 22:02:11 46° W 22:05:18 16° SSW
Cosmos 1500 3.1 22:04:34 34° S 22:06:09 78° E 22:10:02 10° NNE
Atlas Centaur 2 4.5 22:03:37 10° SW 22:06:19 12° SSW 22:07:30 12° S
Lacrosse 5 1.9 22:03:25 10° SW 22:08:22 56° SE 22:13:21 10° ENE
CARTOSAT-1 3.9 22:07:54 37° ESE 22:09:08 49° ENE 22:13:19 10° N
Cosmos 1503 Rocket 4.4 22:04:43 10° NNW 22:10:00 54° ENE 22:12:10 33° ESE
Cosmos 2237 Rocket 4.0 22:13:18 14° E 22:13:18 14° E 22:15:06 10° ENE
ATLAS 3B R/B 2.9 22:06:09 10° NW 22:12:48 60° SW 22:16:21 27° SSE
Cosmos 1437 Rocket 3.6 22:15:09 35° E 22:15:09 35° E 22:18:36 10° NNE
Cosmos 1602 Rocket 4.1 22:11:59 10° N 22:16:07 40° ENE 22:16:50 37° E
Cosmos 1066 Rocket 4.1 22:11:09 10° NNW 22:16:34 83° W 22:19:21 30° S
H-2A R/B 2.8 22:21:34 34° E 22:22:22 38° ENE 22:26:27 10° N
NOSS 2-3 (D) 4.4 22:18:21 10° SW 22:23:13 68° NW 22:29:08 10° NE
Meteor 1-21 4.4 22:18:43 10° N 22:24:17 59° ENE 22:26:14 38° SE
NOSS 3-2 (C) 4.0 22:21:45 10° NW 22:29:05 79° NE 22:33:14 32° SE
Cosmos 724 4.2 22:23:37 10° NW 22:29:35 83° NE 22:31:48 40° SE
H-2A R/B 2.5 22:27:56 27° SSW 22:30:33 54° W 22:35:27 10° NNW
BREEZE-M (TANK) 3.5 22:21:00 10° WNW 22:33:41 61° SSW 22:34:56 45° SSE
Landsat 7 4.0 22:37:41 40° SSW 22:39:17 65° WSW 22:44:03 10° NNW
Meteor 1-12 Rocket 4.2 22:36:16 29° SSW 22:39:20 87° WNW 22:45:02 10° NNE
Cosmos 1626 Rocket 3.4 22:36:38 10° N 22:40:59 76° E 22:41:29 66° SE
ERBS 4.3 22:40:57 10° WNW 22:44:04 30° NNW 22:47:10 10° NE
Cosmos 1842 3.4 22:41:26 10° N 22:45:12 57° ENE 22:45:12 57° ENE
Cosmos 2278 Rocket 2.4 22:40:36 10° NNW 22:46:15 63° ENE 22:47:55 44° ESE
Nadezhda 1 Rocket 4.0 22:40:43 10° NNW 22:47:01 80° W 22:49:44 37° S
EXPRESS MD2 3.9 22:43:19 10° W 22:47:06 89° S 22:55:10 10° E
ATLAS 2AS CENTAUR R/B 3.3 22:42:16 10° SW 22:50:09 73° NW 22:58:21 10° NE
Cosmos 1666 2.8 22:52:04 70° NE 22:52:04 70° NE 22:55:38 10° NNE
Cosmos 2237 4.2 22:47:19 17° SSW 22:51:47 82° WNW 22:57:32 10° NNE
Cosmos 2322 Rocket 4.1 22:47:06 10° WSW 22:52:04 30° NW 22:57:04 10° NNE
Terra 2.0 22:53:31 49° SSW 22:54:37 65° WSW 22:59:23 10° NNW
Cosmos 1844 Rocket 3.2 22:49:48 10° NW 22:55:18 52° WSW 22:57:01 39° SSW
GP-B 3.0 22:51:27 10° N 22:55:56 90° NNW 22:56:25 71° S
Cosmos 1302 Rocket 4.1 22:54:50 27° SW 22:57:48 73° WNW 23:03:06 10° NNE
Cosmos 2181 Rocket 4.2 22:52:42 10° N 22:59:06 61° ENE 23:00:52 45° SE
Meteor 1-4 Rocket 4.2 23:00:55 26° NE 23:00:55 26° NE 23:03:02 10° NNE
NOSS 3-4 (A) 3.8 23:00:29 42° ESE 23:00:29 42° ESE 23:06:28 10° NE
NOSS 3-4 (C) 3.9 23:00:38 42° ESE 23:00:38 42° ESE 23:06:34 10° NE
Cosmos 1544 Rocket 4.4 22:59:52 31° SW 23:01:37 47° WNW 23:05:58 10° N
Cosmos 1975 4.1 23:00:09 26° WSW 23:01:39 36° WNW 23:05:23 10° N
Cosmos 1992 Rocket 4.3 23:02:46 47° E 23:02:46 47° E 23:07:30 10° NNE
Cosmos 1743 3.0 23:02:35 59° W 23:02:41 60° WNW 23:06:29 10° N
SL-16 R/B 4.3 22:58:04 10° W 23:02:47 26° NW 23:07:33 10° NNE
Cosmos 1825 Rocket 4.1 22:59:48 10° N 23:03:47 44° ENE 23:03:47 44° ENE
CENTAUR R/B 3.3 22:57:00 10° NW 23:04:33 63° NE 23:08:54 30° ESE
COSMOS 2455 3.7 23:02:10 10° NNW 23:07:53 42° NE 23:10:18 29° E
Cosmos 1709 Rocket 4.0 23:06:44 51° SSE 23:08:06 65° E 23:14:18 10° NNE
Meteor 2-9 Rocket 4.2 23:08:34 57° SSE 23:09:33 68° E 23:15:12 10° NNE
Cosmos 968 Rocket 3.5 23:06:47 10° NNW 23:11:55 66° ENE 23:12:31 60° ESE
Cosmos 2219 Rocket 2.1 23:11:10 60° SSE 23:12:00 69° ESE 23:17:39 10° NNE
Cosmos 1455 Rocket 4.2 23:12:50 30° WSW 23:14:24 41° WNW 23:18:38 10° N
CZ-2C R/B 3.7 23:10:09 10° NNE 23:14:29 30° E 23:14:29 30° E
Cosmos 1758 Rocket 4.1 23:14:26 10° N 23:18:15 46° ENE 23:18:15 46° ENE
SL-16 R/B 3.8 23:20:14 20° E 23:20:14 20° E 23:23:04 10° NE
Spot 4 3.7 23:19:00 70° SW 23:19:22 75° WSW 23:24:10 10° NNW
COSMOS 2428 2.9 23:16:29 28° SW 23:19:34 71° WNW 23:25:19 10° NNE
SL-24 R/B 4.3 23:15:06 10° N 23:20:04 71° E 23:20:09 71° ESE
ATLAS CENTAUR R/B 2.7 23:17:38 10° NNW 23:20:54 28° NE 23:20:55 28° NE
USA 215 3.6 23:19:09 21° E 23:23:41 62° NNE 23:30:08 10° WNW
Meteor 1-15 Rocket 4.3 23:24:19 57° ESE 23:24:54 60° E 23:30:44 10° NNE
DELTA 2 DEB (DPAF) 4.1 23:25:34 85° NW 23:25:34 85° NW 23:30:00 10° NNW
Cosmos 2360 Rocket 3.7 23:20:53 10° WSW 23:26:02 35° NW 23:31:12 10° NNE
Cosmos 1844 4.5 23:21:07 10° NW 23:26:21 40° WSW 23:27:25 36° SW
CZ-2C R/B 2.9 23:32:12 64° ENE 23:32:14 64° ENE 23:37:01 10° N
Cosmos 2333 Rocket 2.0 23:32:27 69° S 23:33:06 80° ESE 23:38:48 10° NNE
Cosmos 1818 3.6 23:33:44 47° SW 23:35:21 80° NW 23:40:50 10° NE
Timation 1 Rocket 4.5 23:30:04 10° NW 23:35:57 58° WSW 23:36:46 53° SSW
BREEZE M DEB (TANK) 4.0 23:22:20 10° WSW 23:36:36 65° SSE 23:37:28 57° ESE
Meteor 2-13 Rocket 4.5 23:38:45 58° SE 23:39:24 62° E 23:45:29 10° NNE
ALOS 2 3.3 23:39:54 47° NE 23:39:54 47° NE 23:43:46 10° N
CZ-4 R/B 3.8 23:36:23 10° NNE 23:41:08 74° WNW 23:41:24 71° WSW
CZ-4B R/B 3.2 23:36:42 10° NNE 23:41:16 80° NE 23:41:16 80° NE
CZ-4C R/B 4.4 23:43:24 38° NW 23:43:24 38° NW 23:45:44 10° NNW
USA 81 4.4 23:37:16 10° NNW 23:42:27 56° W 23:43:08 52° WSW
Aureole 2 Rocket 4.3 23:47:27 28° NNW 23:47:27 28° NNW 23:49:30 10° N
DNEPR-1 R/B 3.8 23:43:25 10° NW 23:47:22 72° NNW 23:47:22 72° NNW
RESURS DK-1 4.1 23:52:04 26° NE 23:52:04 26° NE 23:54:03 10° NE
Lacrosse 5 2.6 23:46:31 10° W 23:51:28 51° NNW 23:56:26 10° NE
Cosmos 2369 Rocket 4.0 23:49:42 10° NNW 23:54:27 26° NE 23:57:24 17° E
